Alexandria, Egypt

11:37 AM EET on February 14, 2016 (GMT +0200)
Alexandria International

Weather History for HEAX - November, 2013

Change the Weather History Date:

Friday, November 1, 2013

  Actual Average Record
Temperature  
Mean Temperature 73 °F -  
Max Temperature 78 °F 72 °F 93 °F (2003)
Min Temperature 68 °F 57 °F 53 °F (2005)
Cooling Degree Days 8    
Growing Degree Days 23 (Base 50)    
Moisture  
Dew Point 63 °F    
Average Humidity 73    
Maximum Humidity 83    
Minimum Humidity 54    
Precipitation  
Precipitation 0.00 in 0.04 in - ()
Sea Level Pressure  
Sea Level Pressure 30.02 in    
Wind  
Wind Speed 8 mph ()    
Max Wind Speed 14 mph    
Max Gust Speed -    
Averages and records for this station are not official NWS values.
T = Trace of Precipitation, MM = Missing Value Source: Averaged Metar Reports

Daily Weather History Graph

Daily Weather History Graph

Search for Another Location

Airport or City:

Trip Planner

Search our weather history database for the weather conditions in past years. The results will help you decide how hot, cold, wet, or windy it might be!

Date:

Astronomy

Nov. 01, 2013 Rise Set
Actual Time 6:15 AM EET 5:11 PM EET
Civil Twilight 5:50 AM EET 5:36 PM EET
Nautical Twilight 5:21 AM EET 6:05 PM EET
Astronomical Twilight 4:53 AM EET 6:33 PM EET
Moon 3:55 AM EET (11/1) 3:46 PM EET (11/1)
Length of Visible Light 11h 45m
Length of Day
10h 55m
Waning Crescent, 6% of the Moon is Illuminated
Nov 1
Waning Crescent
Nov 3
New
Nov 10
First Quarter
Nov 17
Full
Nov 25
Last Quarter

Hourly Weather History & Observations

Time (EET) Temp. Dew Point Humidity Pressure Visibility Wind Dir Wind Speed Gust Speed Precip Events Conditions
12:00 AM 69.8 °F 64.4 °F 83% 30.01 in - NNW 8.1 mph - N/A   Clear
1:00 AM 69.8 °F 64.4 °F 83% 30.01 in - NNW 8.1 mph - N/A   Clear
2:00 AM 69.8 °F 64.4 °F 83% 30.01 in - NW 5.8 mph - N/A   Clear
3:00 AM 69.8 °F 64.4 °F 83% 30.01 in - NW 5.8 mph - N/A   Clear
4:00 AM 68.0 °F 62.6 °F 83% 30.01 in - NW 4.6 mph - N/A   Clear
5:00 AM 69.8 °F 64.4 °F 83% 30.01 in - NNW 5.8 mph - N/A   Clear
6:00 AM 69.8 °F 64.4 °F 83% 30.01 in - NNW 6.9 mph - N/A   Clear
7:00 AM 69.8 °F 62.6 °F 78% 30.01 in - NNW 6.9 mph - N/A   Clear
8:00 AM 71.6 °F 64.4 °F 78% 30.04 in - NNW 9.2 mph - N/A   Clear
9:00 AM 73.4 °F 64.4 °F 73% 30.04 in - NNW 9.2 mph - N/A   Clear
10:00 AM 75.2 °F 64.4 °F 69% 30.04 in - NNW 9.2 mph - N/A   Clear
11:00 AM 77.0 °F 64.4 °F 65% 30.04 in - NW 9.2 mph - N/A   Clear
12:00 PM 77.0 °F 62.6 °F 61% 30.04 in - NNW 9.2 mph - N/A   Clear
1:00 PM 77.0 °F 60.8 °F 57% 30.01 in - NW 13.8 mph - N/A   Clear
2:00 PM 78.8 °F 60.8 °F 54% 30.01 in - NNW 13.8 mph - N/A   Clear
3:00 PM 77.0 °F 62.6 °F 61% 30.01 in - NW 13.8 mph - N/A   Clear
4:00 PM 75.2 °F 62.6 °F 65% 29.98 in - NNW 11.5 mph - N/A   Clear
5:00 PM 73.4 °F 62.6 °F 69% 30.01 in - North 10.4 mph - N/A   Clear
6:00 PM 71.6 °F 62.6 °F 73% 30.01 in - NNW 9.2 mph - N/A   Clear
7:00 PM 71.6 °F 62.6 °F 73% 30.04 in - North 10.4 mph - N/A   Clear
8:00 PM 71.6 °F 62.6 °F 73% 30.04 in - North 9.2 mph - N/A   Clear
9:00 PM 71.6 °F 62.6 °F 73% 30.04 in - NNW 10.4 mph - N/A   Clear
10:00 PM 71.6 °F 64.4 °F 78% 30.04 in - North 11.5 mph - N/A   Clear
11:00 PM 71.6 °F 64.4 °F 78% 30.04 in - North 12.7 mph - N/A   Clear